Meteo Giornale » Osservazioni meteo Gran Bretagna » Coningsby Royal

ore: 19:50 - Osservazioni Meteo Coningsby Royal
Lat. 53° 5' N Lon. 0° 10' W Alt. 7 metri s.l.m.

sereno

20 °C

Sereno

Temp. 24 Ore

11 °C

23 °C

Ovest

14.8 Km/h

Dew point 10 °C

Umidità 52 %

Visibilità  10 Km

Il sole sorge alle ore 06:10

Il sole tramonta alle ore 19:50

Data e Ora Cielo e Fenomeni T °C DP °C Um. % Pres. hPa Vis. km Vento km/h
Oggi h: 19:50 sereno Sereno 20 10 52 1017 10 O 14.8
Oggi h: 18:50 sereno Sereno 21 11 52 1017 10 O/SO 13
Oggi h: 17:50 sereno Sereno 22 10 46 1017 10 O/SO 18.5
Oggi h: 17:20 sereno Sereno 21 10 49 1017 10 O/SO 22.2
Oggi h: 16:50 sereno Sereno 22 10 46 1017 10 O/SO 20.3
Oggi h: 16:20 sereno Sereno 22 9 43 1017 10 O/SO 22.2
Oggi h: 15:50 sereno Sereno 23 10 43 1017 10 O/SO 27.8
Oggi h: 15:20 sereno Sereno 22 9 43 1018 10 O/SO 20.3
Oggi h: 14:50 sereno Sereno 22 7 37 1017 10 O/SO 24
Oggi h: 14:20 sereno Sereno 23 9 40 1017 10 O/SO 20.3
Oggi h: 13:50 sereno Sereno 22 8 40 1018 10 O/SO 24
Oggi h: 13:20 nuvoloso Nuvoloso 22 9 43 1018 10 O/SO 22.2
Oggi h: 12:50 nuvoloso Nuvoloso 22 9 43 1018 10 O 25.9
Oggi h: 12:20 nuvoloso Nuvoloso 22 10 46 1018 10 O/SO 24
Oggi h: 11:50 nuvoloso Nuvoloso 20 10 52 1018 10 O 20.3
Oggi h: 11:20 molto_nuvoloso Molto Nuvoloso 20 10 52 1018 10 O/SO 25.9
Oggi h: 10:50 molto_nuvoloso Molto Nuvoloso 20 10 52 1018 10 O/SO 25.9
Oggi h: 10:20 poco_nuvoloso Poco Nuvoloso 19 10 55 1019 10 O/SO 22.2
Oggi h: 09:50 sereno Sereno 18 10 59 1019 10 O 18.5
Oggi h: 09:20 sereno Sereno 17 11 67 1019 10 O/SO 13
Oggi h: 08:50 sereno Sereno 16 11 72 1018 10 SO 9.3
Oggi h: 08:20 sereno Sereno 14 11 82 1018 10 SO 9.3
Oggi h: 07:50 sereno Sereno 13 11 87 1018 10 O/SO 11.1
Oggi h: 06:50 sereno Sereno 12 11 93 1018 10 SO 7.4
Oggi h: 05:50 sereno Sereno 11 10 93 1018 10 O/SO 9.3
Oggi h: 04:50 sereno Sereno 12 10 87 1017 10 O 11.1
Oggi h: 03:50 sereno Sereno 12 11 93 1017 10 O 13
Oggi h: 02:50 molto_nuvoloso Molto Nuvoloso 14 11 82 1017 10 O/SO 13
Oggi h: 01:50 molto_nuvoloso Molto Nuvoloso 13 11 87 1017 10 O 13
Oggi h: 00:50 sereno Sereno 13 11 87 1017 10 O 13
Ieri h: 23:50 sereno Sereno 14 11 82 1017 10 O 13
Ieri h: 22:50 sereno Sereno 15 11 76 1016 10 O/NO 14.8
Ieri h: 21:50 sereno Sereno 16 11 72 1016 10 O 14.8
Ieri h: 20:50 sereno Sereno 17 10 63 1015 10 O/NO 16.7